Theta_e
322 323 324 326 327 328 328 328 327 327 325 323 323 321 320 323 323 320 316 314 312 311 311 311 309 306 304 303 302 301 301 301 300 300 299 298 298 298 297 297 297 297
321 324 325 326 327 328 328 327 327 326 325 323 323 321 321 322 321 318 316 313 311 311 311 309 306 304 303 302 301 301 301 300 300 299 299 298 298 298 297 297 297 297
322 324 325 326 327 328 328 327 326 325 325 324 323 322 321 321 319 317 314 311 311 311 309 306 304 302 302 301 301 301 300 300 299 299 299 298 298 298 298 297 297 296
322 324 325 326 327 327 327 326 325 325 325 324 323 322 321 320 318 316 313 311 311 309 306 304 302 301 301 301 301 301 300 300 299 299 299 299 299 298 297 297 296 296
323 324 325 327 327 326 326 325 324 326 325 324 323 322 320 319 319 315 311 311 310 307 304 302 301 301 301 301 301 300 300 299 299 300 301 300 298 298 297 296 296 296
324 325 326 327 327 326 325 323 324 326 324 323 323 323 320 319 318 314 311 310 308 304 302 301 301 301 300 301 301 300 299 299 301 302 301 299 298 297 296 296 296 295
322 323 324 326 326 326 324 323 323 323 322 323 324 322 320 320 318 313 310 309 306 302 301 301 300 300 300 301 300 299 299 301 302 302 300 298 297 296 296 296 296 295
316 316 318 323 326 325 324 324 323 322 321 324 324 321 319 319 316 312 310 307 303 301 301 300 300 300 300 300 299 299 301 303 302 301 299 298 297 296 296 296 295 295
313 312 316 322 324 324 324 324 323 323 322 323 323 321 319 317 314 310 309 305 301 301 301 300 300 299 299 299 299 300 302 302 301 299 298 297 296 296 296 295 295 295
312 313 317 321 322 324 326 325 324 325 324 321 321 320 318 314 311 309 307 303 301 301 300 299 299 299 298 299 300 302 302 301 299 298 297 296 296 296 296 295 295 295
311 313 319 321 321 324 326 325 324 325 323 320 319 319 316 312 310 308 304 301 300 300 299 299 298 298 298 299 301 302 301 299 298 297 296 296 296 296 295 295 295 295
313 315 320 322 322 323 324 322 323 324 322 319 318 318 315 311 309 307 302 300 300 299 298 298 298 297 298 300 301 301 300 298 297 296 296 296 296 296 295 295 295 294
318 319 320 320 320 321 322 322 322 322 321 319 319 317 313 310 308 305 301 300 299 298 297 297 297 298 299 300 300 300 298 297 296 296 296 296 295 295 295 295 295 294
317 318 319 320 321 321 322 322 321 319 319 319 318 315 311 309 307 303 300 300 298 297 297 297 297 298 299 300 300 299 297 296 296 296 296 295 295 295 295 294 294 294
315 315 316 318 320 320 320 319 318 318 319 318 315 311 309 307 304 301 300 300 298 297 296 296 297 298 299 299 298 297 297 296 296 296 295 295 295 294 294 294 293 293
316 317 317 318 318 318 317 317 318 318 318 314 310 309 308 305 301 300 299 299 298 297 296 296 298 298 298 298 297 297 296 296 296 295 295 295 294 294 294 293 293 293
314 316 318 318 318 317 317 317 318 316 314 310 309 309 307 303 300 299 298 297 297 297 297 297 298 298 298 297 297 296 296 296 295 295 295 294 294 294 293 293 293 292
312 313 314 315 315 315 316 316 315 312 310 309 309 308 304 301 299 298 298 297 296 296 296 297 297 297 297 297 297 296 295 295 295 295 295 294 294 294 293 293 292 292
313 313 313 314 314 315 315 314 312 310 309 309 309 306 302 300 299 298 298 297 296 296 296 296 296 296 296 296 296 295 295 295 295 295 295 294 294 293 293 293 292 292
314 314 314 314 314 313 313 311 310 309 309 309 307 304 301 299 299 298 297 296 295 295 296 296 296 296 296 296 295 295 295 295 295 295 294 294 294 293 293 293 292 292
313 313 313 313 313 311 311 310 310 309 309 308 306 303 300 299 298 298 297 296 295 295 295 295 295 296 295 295 295 295 295 294 294 294 294 293 293 293 293 293 292 292
312 312 312 312 311 310 310 310 310 309 309 308 305 301 299 298 298 297 296 295 295 294 295 295 295 295 295 294 294 294 294 294 294 294 293 293 293 293 293 293 292 291
311 311 311 311 310 310 310 310 310 309 309 307 304 301 299 298 297 296 295 295 294 294 294 294 294 295 294 294 294 294 294 294 293 293 293 293 293 294 293 293 292 291
311 310 310 310 310 310 310 310 310 309 308 306 303 300 298 298 297 296 295 294 294 293 294 294 294 294 294 294 293 293 294 294 293 293 294 294 294 294 293 292 291 290
310 310 310 310 310 310 310 310 309 309 307 305 301 299 298 297 296 295 294 293 293 293 293 293 293 293 293 293 293 294 294 294 294 295 296 296 295 294 292 291 290 289
310 310 310 310 310 309 309 309 308 308 306 303 300 298 296 296 295 294 293 293 293 293 293 293 292 292 293 292 293 294 295 296 297 298 297 297 295 293 291 290 289 288
Wind_Speed
32 32 31 30 30 29 29 28 27 26 27 27 26 23 20 21 24 22 17 16 16 16 16 15 14 13 12 11 9 6 5 3 2 2 4 4 5 6 8 10 11 13
33 32 31 30 30 29 29 28 28 27 27 26 25 21 20 23 25 20 16 17 18 18 17 16 15 14 12 10 8 6 4 2 2 2 3 4 5 7 9 10 12 13
33 32 31 30 30 29 28 28 28 28 27 26 24 21 21 24 22 16 16 19 20 19 17 16 16 14 12 10 8 6 4 2 1 1 2 4 5 7 9 10 11 12
32 32 31 30 30 29 29 29 28 28 27 26 24 22 22 23 20 16 18 21 21 19 18 17 16 14 12 10 7 6 4 3 1 1 3 4 6 7 9 10 11 12
32 32 30 30 29 29 30 29 27 28 29 26 23 22 22 22 19 18 22 23 21 20 19 18 16 14 12 9 8 6 4 3 2 1 3 4 6 7 9 9 11 12
32 31 30 29 29 29 30 28 27 29 28 25 23 23 23 21 18 20 24 23 21 21 20 18 16 14 12 10 8 6 5 3 1 1 2 4 5 7 8 9 10 11
32 31 30 29 29 30 30 28 29 29 25 24 25 25 24 21 19 23 26 23 22 21 20 18 15 14 12 10 8 7 5 3 1 1 2 4 5 6 8 9 10 11
31 31 29 29 30 31 30 29 28 27 24 25 27 27 25 22 22 26 26 24 23 22 20 18 16 14 12 10 9 7 5 3 2 2 3 4 5 6 7 8 10 11
30 29 29 30 30 30 31 30 28 27 25 26 27 27 25 23 25 28 26 24 24 22 20 19 16 14 13 11 10 7 5 4 3 3 3 4 4 6 7 8 10 11
28 27 28 29 29 30 31 29 27 29 28 26 28 28 24 25 28 28 26 25 24 23 21 19 16 15 13 12 10 8 6 5 4 3 3 3 4 5 7 8 10 12
26 26 26 27 27 28 29 29 28 30 28 26 27 26 24 27 30 29 27 26 24 23 21 19 17 15 14 12 10 8 6 5 4 3 3 3 4 6 7 9 11 12
23 24 25 27 27 28 29 29 29 29 29 28 27 25 26 30 30 29 27 26 25 23 20 19 18 16 15 12 10 9 7 6 5 4 3 4 5 6 8 9 11 13
23 23 25 26 26 27 28 27 29 30 31 29 27 26 28 31 30 29 28 27 25 23 21 20 18 16 15 13 11 9 8 6 5 4 3 4 5 6 8 10 12 14
25 25 25 25 26 27 28 29 31 31 30 28 26 27 30 31 30 29 29 28 26 23 22 20 19 17 15 13 11 10 8 7 5 4 3 4 5 7 9 11 13 15
23 24 25 27 28 29 30 31 30 29 27 27 27 30 31 30 30 29 29 28 26 24 22 21 19 17 15 13 11 10 9 7 5 4 3 4 5 7 10 12 14 15
24 24 25 26 28 30 30 29 28 27 28 28 30 31 32 31 30 30 29 27 25 24 23 22 20 18 15 13 12 10 9 7 5 4 3 4 6 8 11 13 15 16
27 28 29 30 31 31 30 29 28 28 29 30 32 33 33 32 32 31 29 26 25 24 23 22 20 18 16 14 13 11 9 7 5 4 3 4 7 9 11 14 16 17
29 30 31 32 32 30 29 28 28 30 31 32 34 34 34 34 32 31 29 27 25 24 23 22 20 18 16 15 13 11 9 7 5 3 3 5 7 9 12 14 16 18
28 29 30 30 29 28 28 29 30 31 33 34 35 34 34 34 33 31 29 27 26 26 24 22 20 19 17 15 13 11 9 7 5 3 4 6 8 10 12 15 17 19
27 28 28 28 28 28 29 30 31 33 34 35 35 35 35 34 33 31 29 28 27 26 25 23 21 19 17 15 13 11 9 7 5 4 5 6 9 11 13 16 18 20
26 27 27 28 29 29 30 31 33 34 35 35 35 35 35 34 33 31 30 29 28 27 25 23 21 19 17 15 13 11 9 7 5 4 5 7 10 12 14 17 19 21
27 27 28 29 29 30 31 33 34 35 35 36 36 36 36 34 33 31 30 29 29 27 25 24 22 19 17 15 13 11 9 7 5 5 6 8 11 13 15 17 20 21
28 28 28 29 30 31 33 34 35 36 36 37 37 38 37 35 33 31 30 29 28 27 26 24 21 19 17 15 13 10 9 7 6 5 6 9 11 14 16 18 20 22
29 29 29 30 31 32 33 35 36 37 37 38 38 38 37 35 33 32 30 29 28 27 25 24 21 19 17 15 12 11 9 7 6 5 7 9 11 14 17 19 21 22
30 30 30 31 31 33 34 35 36 37 38 39 39 38 36 35 33 32 31 30 29 27 26 24 22 20 17 15 12 11 9 7 5 5 7 9 11 14 18 20 21 22
31 31 31 31 32 33 35 36 37 38 39 40 39 38 36 35 33 32 31 30 30 29 28 25 23 20 18 15 13 11 9 7 7 8 8 9 11 16 20 21 21 22
Wind_Direction
236 236 237 237 238 239 238 238 239 240 243 246 248 246 237 226 230 241 238 215 199 192 188 188 187 187 188 185 180 174 163 134 87 47 22 12 358 354 354 353 353 349
236 236 236 236 236 237 236 236 237 239 241 245 250 245 229 226 234 238 224 205 193 189 188 188 188 186 185 181 175 169 152 123 84 44 14 3 356 355 353 351 349 345
236 236 236 235 234 233 233 233 235 237 238 240 245 240 227 230 236 228 212 200 190 188 188 186 187 186 182 177 173 165 151 140 114 34 10 2 357 352 349 347 346 343
235 236 236 235 234 232 231 232 232 233 236 237 238 237 229 229 231 220 206 197 190 188 187 186 187 185 180 177 171 166 162 162 160 51 15 360 350 346 345 343 343 342
237 238 237 234 232 231 232 234 230 229 234 235 232 234 231 227 227 215 202 196 190 187 188 188 187 183 181 178 172 171 173 170 161 61 7 351 343 339 339 340 341 342
238 238 237 233 231 231 233 233 228 228 233 231 228 232 231 229 226 211 200 194 189 188 189 189 187 184 182 179 176 178 177 174 173 11 345 337 336 334 335 338 339 339
238 237 234 231 230 231 234 231 228 230 229 224 227 232 231 232 225 208 198 193 190 190 190 189 189 186 183 181 180 181 180 182 211 295 321 323 326 329 333 335 335 334
238 236 232 228 227 228 231 229 228 230 224 220 227 232 233 231 218 203 196 192 191 192 190 190 190 187 185 184 182 184 189 199 232 273 299 311 321 328 331 331 331 329
235 232 227 224 224 226 227 225 227 227 223 222 226 232 232 222 208 200 195 191 192 194 193 192 190 187 186 186 184 187 197 212 236 261 286 308 320 326 326 325 326 326
228 224 220 219 220 222 223 222 221 220 222 225 225 227 225 211 201 197 194 192 193 195 195 193 191 188 187 188 189 192 202 217 235 253 277 305 314 317 320 321 324 325
220 215 214 217 218 218 219 220 218 217 224 229 224 221 217 206 199 195 193 194 197 197 196 193 190 189 189 191 194 198 207 218 228 244 264 291 303 310 319 321 323 324
215 210 209 214 216 215 217 218 216 218 226 228 223 220 213 204 198 195 194 196 198 198 196 194 192 191 192 195 198 202 210 216 222 237 255 279 301 313 319 322 323 324
210 210 210 212 213 214 216 217 217 220 225 225 223 218 209 201 198 196 195 198 199 198 195 194 194 194 195 197 200 205 211 214 220 233 254 284 305 316 319 321 323 323
208 209 210 212 212 213 213 215 219 222 224 224 220 211 204 201 200 199 198 199 199 198 196 195 196 198 199 200 202 207 210 212 221 233 258 292 307 316 319 321 322 322
215 213 211 211 212 214 216 219 222 224 223 220 212 204 200 200 201 202 204 203 200 198 197 197 198 200 200 201 204 208 208 211 221 233 264 295 308 316 319 320 321 322
217 217 216 216 216 219 223 225 225 223 217 210 203 201 200 200 202 204 206 206 204 201 199 200 201 201 200 203 206 207 208 212 219 234 267 298 312 318 319 320 322 324
215 216 218 219 221 224 225 224 220 214 208 203 201 201 202 201 203 206 206 205 206 205 204 203 203 201 201 205 206 206 207 210 217 236 272 302 314 317 319 322 324 325
220 220 221 222 223 223 221 216 210 206 203 202 202 203 203 203 205 207 207 206 205 206 207 206 204 203 204 206 206 205 207 211 219 238 280 303 312 317 321 324 324 325
223 223 222 221 218 216 212 208 206 205 205 205 205 205 206 206 207 208 208 208 207 207 208 206 205 205 206 206 206 206 209 214 223 247 282 303 313 320 324 325 325 326
222 221 218 215 212 210 208 207 207 207 206 207 207 208 208 209 210 210 209 209 210 210 209 207 207 207 207 206 206 208 211 216 227 256 287 306 317 323 326 326 326 327
219 217 215 213 212 211 210 210 210 209 209 209 210 211 212 213 213 213 212 211 211 211 210 209 209 209 207 207 207 210 214 219 234 263 292 311 319 324 327 327 327 326
218 217 216 215 215 214 214 213 212 211 212 212 212 212 214 215 215 215 214 214 213 212 211 211 211 210 208 208 209 212 216 225 243 270 297 315 322 325 327 327 325 323
222 221 221 220 219 219 218 217 216 215 214 215 215 215 215 215 216 216 216 216 215 214 213 213 213 212 210 209 210 214 220 230 250 279 307 319 323 325 325 323 320 318
229 228 227 226 225 224 223 221 219 218 217 217 217 217 218 218 217 217 216 216 216 216 217 216 215 214 213 211 211 216 225 237 259 291 311 316 319 322 320 317 315 315
234 234 233 231 230 228 226 224 222 220 219 219 218 219 220 220 219 218 217 216 215 216 218 218 217 216 215 212 212 220 229 239 260 283 295 305 314 316 313 311 312 313
237 237 236 235 233 230 228 225 223 221 220 219 218 219 220 220 220 219 219 218 218 218 219 219 218 218 216 214 214 221 231 242 259 273 283 300 310 309 307 307 309 311